GFSMA_925_rhum_000.txt.gz
RH
87 92 78 73 64 53 48 45 39 33 28 23 20 19 20 19 25 38 34 42 41 44 74 70 66 64 63 69 74 74 74 74 72 71 71 74 74 82 85 88 95 97 96
85 81 66 52 46 43 39 31 22 19 18 18 17 18 20 21 32 22 32 30 31 30 60 59 60 57 62 64 62 64 67 68 67 66 67 71 78 72 70 83 86 86 86
81 64 52 42 33 26 20 17 17 17 17 17 16 16 16 22 16 24 24 22 23 22 25 41 55 56 62 60 61 62 61 62 59 60 66 73 71 69 73 87 89 89 89
63 49 36 23 20 20 19 18 17 16 15 13 14 14 14 29 21 19 23 20 21 23 23 20 18 35 55 54 57 58 57 59 63 70 74 69 67 73 74 76 78 79 80
42 25 22 25 24 22 19 15 14 12 17 12 13 13 16 30 31 23 17 21 20 22 22 20 16 15 22 52 52 51 55 55 51 50 57 64 62 64 64 65 67 67 68
22 27 28 26 21 18 15 12 11 11 16 18 14 12 23 40 38 32 22 22 20 24 21 18 18 15 22 34 50 48 49 48 48 55 62 58 60 64 66 66 65 65 63
28 30 28 24 19 16 14 13 11 11 16 23 23 18 20 26 26 30 13 20 22 20 15 20 16 15 16 30 33 40 44 44 51 61 59 61 60 64 65 65 65 63 62
28 29 26 22 17 14 13 13 13 14 18 26 26 48 55 30 20 13 17 19 14 19 15 18 16 13 22 32 31 36 38 43 56 59 62 62 66 65 65 64 63 62 62
27 26 22 19 16 14 14 16 17 19 24 21 36 29 40 48 56 29 19 24 24 27 26 26 20 23 22 24 23 31 30 48 52 57 60 64 62 62 62 62 62 62 59
24 22 20 17 15 14 14 15 18 21 24 29 24 24 26 33 52 59 31 24 33 30 32 28 27 25 23 24 29 29 35 49 51 52 54 58 60 60 61 61 60 59 60
21 19 18 15 14 13 14 15 18 22 25 28 29 31 32 32 43 54 45 41 38 36 35 33 30 29 28 28 31 38 40 47 49 51 56 58 59 59 60 60 58 60 58
20 19 17 15 14 13 14 16 21 24 27 27 28 30 34 41 46 48 59 48 47 40 41 38 33 32 33 36 39 37 53 51 48 54 56 56 58 59 58 59 58 57 59
21 19 17 15 14 14 16 20 24 26 27 28 29 31 32 34 38 48 54 57 56 49 43 43 39 41 39 41 39 40 47 50 52 53 56 57 58 58 58 59 59 59 56
21 19 17 16 15 16 20 25 26 26 27 28 31 34 35 36 45 53 58 65 68 57 46 50 54 53 51 55 52 52 52 53 53 54 55 56 56 61 61 58 56 57 57
19 18 16 15 16 20 25 27 26 25 26 31 36 38 40 43 50 53 54 59 74 79 65 57 63 64 65 64 60 57 58 60 56 55 55 58 66 62 56 56 53 53 54
19 17 16 16 20 26 28 27 25 27 32 35 40 43 44 47 51 53 55 57 65 82 88 65 70 72 73 69 67 64 65 63 60 60 67 62 53 51 52 53 53 54 54
18 16 17 20 26 29 29 27 27 32 36 41 42 44 45 46 52 55 57 59 66 76 88 76 71 74 71 64 64 67 70 73 76 87 64 53 52 54 55 55 60 66 71
18 18 20 27 31 30 28 27 32 39 45 46 45 45 46 49 54 57 60 64 70 72 84 85 83 71 67 70 75 84 78 78 88 65 58 56 57 56 59 69 79 72 77
19 21 28 32 30 29 28 29 44 49 50 50 50 52 54 57 59 61 66 72 72 76 80 81 75 72 74 86 80 81 80 77 67 63 60 60 62 64 72 70 64 69 71
22 30 34 31 30 30 29 38 52 54 59 60 58 59 59 61 67 69 68 64 66 67 67 71 75 82 89 90 73 66 63 65 69 72 76 74 66 64 63 64 64 63 64
31 34 32 32 32 31 31 53 56 59 65 64 56 55 57 65 70 63 62 62 67 73 81 95 96 92 76 63 65 68 72 74 79 73 68 69 70 72 74 74 71 70 72
34 34 33 33 33 33 36 58 59 62 67 63 62 60 62 63 67 71 69 71 76 99 96 82 81 71 67 68 70 80 92 84 84 71 75 86 79 78 75 74 73 74 72
35 35 35 36 35 37 52 59 61 64 66 64 65 67 69 71 73 77 76 83 97 78 71 68 70 72 73 81 98 95 91 92 85 81 87 90 77 76 73 72 70 73 73
35 36 36 36 38 41 59 60 64 66 67 66 67 69 75 76 81 79 89 97 74 71 70 68 71 85 96 78 74 77 92 97 91 78 72 89 76 76 73 75 75 75 74
36 37 38 39 44 50 55 65 69 68 69 68 68 78 80 81 79 81 84 74 71 74 64 81 91 77 72 75 80 90 94 93 83 73 73 76 76 78 79 78 77 73 68
40 39 36 43 50 54 53 69 70 71 72 72 78 70 75 76 72 86 68 68 78 74 95 94 73 72 80 83 80 80 90 95 91 88 67 86 87 88 88 68 64 71 76

GFSMA_925_rhum_003.txt.gz
RH
88 94 76 71 59 53 48 40 31 23 19 17 17 18 21 20 30 31 36 41 37 72 72 73 70 68 74 74 72 75 76 77 76 75 81 84 79 76 78 85 88 93 96
87 83 67 52 44 37 25 17 16 17 18 17 16 18 17 22 24 25 31 30 27 31 57 66 65 72 69 70 72 72 69 72 68 66 68 75 74 74 73 78 84 88 90
88 72 57 40 23 17 18 18 17 16 16 15 14 14 14 21 22 24 26 25 23 23 24 34 51 59 61 63 66 68 67 67 70 73 78 77 73 77 79 84 82 84 86
72 54 38 20 22 22 20 16 15 13 13 13 14 13 13 25 22 22 21 20 18 20 22 18 16 21 48 54 59 60 60 63 62 59 57 63 72 71 70 72 74 74 74
53 32 22 26 23 20 16 13 12 11 15 14 13 18 18 27 26 21 21 19 19 21 21 18 16 15 14 44 51 55 53 56 56 54 56 69 66 62 63 66 67 68 69
25 25 30 26 22 19 15 12 11 12 16 13 11 18 31 41 37 35 26 14 22 21 19 19 17 16 12 15 47 50 48 52 52 55 60 66 64 64 66 68 68 67 66
27 32 30 25 21 19 13 12 13 14 24 15 24 22 22 20 31 27 17 16 21 20 19 28 25 27 25 17 20 33 43 45 48 51 62 62 66 66 65 67 65 66 65
31 30 27 23 19 15 14 14 13 15 26 25 29 38 28 22 22 18 24 19 21 20 16 18 21 25 26 34 33 40 42 43 45 50 56 60 63 64 65 63 64 64 64
28 28 24 22 17 15 14 14 14 13 29 28 27 27 23 25 30 29 20 32 22 30 26 33 32 30 31 32 30 32 37 47 49 51 55 59 60 61 60 60 60 60 61
25 24 22 18 16 14 14 14 15 17 22 33 32 31 30 34 28 28 30 24 33 31 34 34 32 34 32 34 33 31 36 57 51 52 57 59 59 58 59 58 57 57 56
22 20 18 16 15 13 13 13 17 22 24 32 35 35 37 36 49 37 28 28 34 35 37 35 38 36 36 38 43 47 52 47 47 53 56 56 58 60 58 57 56 57 55
20 18 16 15 14 12 12 14 21 24 26 26 27 32 38 35 33 36 38 38 39 36 38 40 35 38 40 45 47 47 48 51 51 53 57 58 58 59 63 66 68 69 73
20 17 16 15 14 12 13 18 23 25 25 26 28 35 35 42 43 46 50 45 44 42 40 37 40 44 49 51 45 54 55 55 55 55 56 56 56 58 63 67 67 81 78
20 18 16 15 13 14 17 22 25 24 24 27 31 34 37 41 45 53 55 54 50 35 33 34 42 50 50 55 59 59 53 54 52 52 52 55 53 51 52 77 71 71 68
19 18 15 14 15 18 23 26 24 23 27 32 34 38 42 44 46 57 62 60 56 54 49 40 48 50 58 59 57 54 52 52 53 52 47 48 52 67 74 70 54 55 54
18 16 15 16 19 25 27 25 23 26 30 35 40 43 46 46 52 59 65 64 64 62 62 53 57 60 60 60 57 54 53 57 56 56 56 57 61 58 55 56 54 56 60
17 16 17 20 26 29 27 24 26 32 38 42 45 48 48 50 58 62 66 68 68 67 65 64 63 64 61 58 54 58 64 64 66 62 57 56 58 60 68 72 69 70 68
18 18 21 27 30 27 26 27 33 41 46 50 52 54 58 57 62 64 67 67 67 68 71 71 69 65 58 60 65 74 72 62 58 61 59 60 59 59 61 70 78 75 79
20 23 29 30 28 28 28 30 41 48 54 58 60 59 58 61 62 62 67 69 67 68 71 75 69 63 67 77 84 67 58 52 53 57 60 62 63 66 66 69 70 71 70
24 30 30 29 30 30 30 35 51 55 59 63 63 52 54 62 64 70 71 68 67 63 68 70 76 90 73 67 62 56 57 60 63 66 69 67 65 63 64 64 65 67 69
30 31 30 31 31 31 32 56 59 58 61 65 65 56 60 64 73 69 66 69 68 74 89 97 83 73 67 57 58 63 67 71 74 68 67 67 64 67 71 70 69 69 72
31 31 31 32 33 32 35 61 62 63 64 68 67 65 65 67 72 76 72 73 78 98 97 86 77 63 57 61 66 76 86 80 78 64 65 75 72 72 70 69 68 70 71
32 32 32 33 34 34 56 62 62 65 68 69 70 70 72 74 74 80 80 84 97 79 70 69 63 62 68 74 98 91 83 80 78 76 78 80 72 71 67 66 67 70 72
32 33 35 36 36 38 59 63 68 70 70 71 70 71 76 78 83 83 85 98 81 71 66 69 70 79 91 82 76 77 86 92 85 74 66 80 70 70 69 70 70 73 75
33 36 37 38 39 44 54 68 71 71 72 72 71 76 78 77 74 70 92 80 65 66 66 78 93 84 74 76 81 88 88 90 80 70 70 73 70 73 75 74 72 69 75
38 37 36 41 46 48 50 71 71 71 72 70 74 76 78 74 69 82 73 67 74 72 93 92 70 68 73 76 81 78 87 94 90 86 62 84 83 81 79 58 59 72 71

GFSMA_925_rhum_006.txt.gz
RH
81 78 69 69 52 45 40 36 29 23 21 21 20 23 25 24 27 32 41 38 56 72 76 75 76 78 76 76 79 78 75 78 76 72 72 74 80 79 78 76 78 84 91
84 84 71 60 43 33 25 23 24 25 22 20 20 20 23 25 27 31 37 43 27 34 62 64 63 66 66 69 71 72 72 71 75 77 79 81 80 77 79 77 85 88 89
82 78 61 43 30 27 26 25 23 24 22 20 20 20 22 25 26 30 32 33 34 28 26 34 44 51 53 56 59 63 63 65 69 68 67 68 76 78 75 75 79 80 82
83 68 45 32 29 28 26 24 22 22 22 22 21 20 22 26 25 26 28 27 31 30 30 20 15 13 15 36 48 53 56 55 61 61 60 60 61 66 68 66 69 69 70
72 46 33 31 28 26 25 22 23 24 24 23 20 16 27 30 27 26 26 28 32 31 31 31 21 21 17 27 48 52 55 53 57 56 58 59 63 70 67 65 67 69 70
45 33 32 29 27 27 24 24 24 26 26 23 23 20 33 40 33 34 30 22 27 27 30 31 25 24 28 39 50 52 52 50 53 54 55 56 68 68 66 66 66 66 67
28 32 31 30 29 28 27 25 26 25 25 25 19 20 22 25 37 30 22 24 25 25 23 23 24 25 24 30 34 45 53 51 53 52 53 56 60 63 64 64 63 64 64
32 33 32 30 29 29 30 29 29 24 24 27 23 24 20 18 21 19 25 22 23 22 23 24 28 26 27 28 31 44 45 50 54 56 57 57 57 61 63 62 62 61 61
31 31 30 30 29 31 32 30 28 24 22 27 29 23 20 20 20 19 21 26 21 23 26 29 29 27 29 30 32 34 44 58 57 58 58 59 62 62 61 60 59 58 58
31 29 28 29 28 30 30 25 26 27 27 26 28 26 25 24 22 24 22 21 24 26 29 30 29 29 29 30 34 38 48 54 53 54 56 57 61 61 61 59 58 62 60
31 28 28 26 27 28 28 28 30 29 30 28 29 27 26 27 30 31 28 24 27 29 30 31 31 30 29 32 36 40 48 52 58 59 60 59 58 57 57 57 56 63 74
30 28 27 27 27 28 30 31 34 35 33 32 31 31 31 29 27 29 30 30 31 30 30 30 31 31 32 38 41 45 54 60 62 62 61 60 59 58 58 59 63 72 73
29 28 26 26 28 29 29 32 34 35 33 32 32 31 34 34 34 34 36 35 34 32 27 28 28 29 36 40 40 50 59 59 54 56 56 58 58 57 59 59 59 58 56
28 28 26 26 26 27 29 32 34 34 34 34 38 38 37 37 38 39 41 42 40 28 25 23 27 32 37 42 49 52 51 50 51 53 54 54 53 52 53 54 56 62 70
28 27 27 27 28 29 30 32 31 31 33 36 37 39 41 41 41 42 44 45 43 42 35 30 31 34 40 46 46 50 49 47 51 54 57 58 60 60 58 58 59 63 64
25 27 27 28 29 31 32 32 31 34 35 37 39 41 41 40 40 43 46 46 46 46 46 37 38 40 44 46 47 49 49 55 56 57 57 56 57 60 60 58 59 58 62
26 26 27 28 30 31 31 30 32 36 39 41 43 45 47 44 42 41 43 45 46 47 46 46 44 46 49 49 48 52 54 61 59 49 50 51 55 59 63 67 67 65 65
26 27 29 31 32 31 30 30 34 39 42 43 45 48 47 39 42 42 45 46 47 49 50 52 54 52 51 53 60 60 56 49 45 43 48 55 60 62 63 64 68 72 74
29 31 33 32 31 33 32 31 37 41 44 47 48 48 43 42 42 42 45 50 53 52 54 57 54 56 60 68 63 56 48 45 47 50 52 55 59 62 65 65 64 63 66
33 34 33 34 33 34 34 36 44 46 47 50 53 53 48 49 50 53 56 54 52 56 55 58 63 81 72 60 52 46 47 52 55 58 60 60 60 60 61 58 62 66 67
35 35 35 35 36 36 33 48 50 50 50 50 49 50 50 56 70 72 67 63 61 66 74 82 92 73 62 50 45 50 58 64 66 62 60 59 53 59 64 64 63 63 64
37 36 36 36 37 35 33 62 63 52 49 50 49 48 51 60 60 65 64 67 74 79 97 90 76 60 48 47 55 65 79 76 73 59 59 67 64 65 63 62 60 62 66
36 36 36 37 37 39 44 64 64 58 53 51 56 58 57 55 62 61 71 72 80 98 72 66 58 51 55 62 86 94 77 75 73 71 71 71 63 61 61 61 62 66 70
35 35 37 38 40 40 40 65 69 58 53 54 57 58 57 59 61 72 74 91 84 64 52 56 59 68 80 90 77 74 79 81 80 68 62 71 63 62 61 65 66 69 72
36 37 39 40 38 40 56 68 70 56 52 54 55 55 62 70 68 68 86 89 58 52 54 61 76 86 70 69 73 79 88 87 79 68 65 63 61 69 69 68 59 54 60
39 39 39 40 46 43 52 68 70 60 55 53 52 55 57 71 64 84 78 60 59 59 73 89 63 61 61 63 67 68 79 94 88 85 62 76 82 76 75 57 56 68 67

GFSMA_925_rhum_009.txt.gz
RH
68 68 65 60 52 46 41 34 26 24 22 22 20 19 22 22 24 27 40 38 56 72 74 73 75 74 74 75 77 76 77 77 79 82 84 84 86 83 82 83 82 88 94
69 65 60 52 43 35 26 24 24 24 22 20 19 18 20 21 24 28 34 39 29 34 51 60 58 58 57 58 61 64 67 67 71 73 74 74 75 81 81 79 82 86 84
70 62 62 48 34 29 27 25 22 22 22 21 20 20 20 22 24 28 31 33 36 31 24 20 21 27 33 47 48 51 55 60 59 64 64 63 62 65 66 74 75 76 76
64 64 47 37 31 28 26 25 24 24 24 24 23 18 19 22 24 25 27 27 31 29 30 29 18 17 23 37 51 54 56 60 58 59 60 61 62 63 70 73 68 66 68
76 69 45 34 29 28 28 25 27 28 27 24 20 17 28 29 26 24 25 27 30 30 32 31 26 24 25 38 48 54 58 59 59 58 60 60 60 62 68 70 68 68 68
63 39 34 30 30 30 28 29 29 28 28 24 21 20 28 34 28 30 32 19 25 26 28 27 25 26 26 32 38 44 54 60 58 60 62 61 60 62 62 67 67 67 66
41 35 32 32 32 32 32 31 30 29 28 26 21 24 22 23 34 35 21 22 21 22 23 24 26 28 27 31 33 40 50 53 60 65 65 65 65 63 62 63 63 64 63
36 33 34 34 34 34 35 34 32 26 27 28 25 25 27 21 21 20 22 22 22 22 24 26 29 28 28 30 31 39 42 53 62 63 64 65 66 66 64 64 63 62 62
34 34 35 35 36 37 37 34 31 28 27 28 28 25 28 28 23 19 21 22 24 23 25 28 29 29 28 30 32 35 40 52 60 62 63 63 63 63 63 62 61 60 61
34 34 35 35 36 36 34 27 29 29 28 28 28 25 26 24 27 28 21 24 23 25 27 28 29 30 30 28 32 35 44 56 58 64 70 69 68 65 63 61 59 58 56
33 33 33 34 34 33 32 32 31 30 30 29 30 30 28 27 28 30 36 28 28 28 29 29 29 29 29 30 34 38 46 52 61 67 67 66 64 62 61 59 58 57 61
32 32 32 33 33 34 35 34 34 35 33 32 31 31 32 32 30 32 36 34 34 32 30 29 27 28 29 30 38 41 46 56 63 64 62 63 62 61 60 60 61 63 68
31 32 31 32 33 33 31 34 35 36 34 32 32 31 33 34 34 34 36 38 39 36 32 25 24 23 25 31 36 42 52 54 54 56 58 60 60 59 58 58 57 57 58
31 31 30 30 31 31 32 34 35 36 34 35 38 40 39 39 38 39 40 42 46 39 33 26 27 26 33 33 39 44 47 48 50 52 54 56 58 59 59 60 59 59 60
31 30 29 29 29 30 30 32 32 30 32 34 38 38 40 39 39 40 41 42 44 50 45 34 31 34 35 38 41 45 47 47 49 54 55 57 58 60 58 56 56 60 64
28 29 29 30 30 30 31 31 31 31 32 34 37 39 41 40 39 39 41 42 42 44 50 42 40 39 40 44 46 47 49 54 55 54 54 55 55 54 55 57 59 63 71
28 28 28 29 29 30 29 29 29 32 35 36 39 41 45 45 43 38 39 40 42 44 48 46 46 48 49 49 48 52 64 58 57 51 48 48 51 55 60 64 65 67 68
27 27 28 28 29 29 28 27 29 32 36 38 40 42 46 39 38 37 38 40 42 44 49 52 52 53 53 50 58 70 63 53 51 44 47 52 55 58 60 62 64 69 66
27 28 30 30 29 31 30 29 30 33 36 39 42 43 45 44 40 40 43 47 51 52 53 54 56 54 58 69 75 59 52 48 46 49 52 54 57 59 62 62 62 61 62
31 31 31 32 32 31 32 32 37 41 42 44 46 46 46 47 46 49 59 61 58 60 60 61 66 73 84 72 57 51 48 52 58 61 63 60 60 59 59 56 61 64 66
32 32 32 33 33 33 29 38 48 49 46 44 44 44 43 45 55 63 66 66 66 66 73 82 84 92 67 57 52 52 58 67 72 72 63 64 59 62 65 63 62 62 63
34 34 34 33 34 32 33 47 66 57 50 45 45 44 47 53 52 56 60 61 63 70 85 96 90 67 64 52 57 69 80 93 80 65 64 68 68 70 66 64 60 61 64
34 34 33 33 32 34 37 59 66 62 54 48 49 53 54 51 54 58 60 61 72 77 82 65 62 57 58 63 76 91 86 78 78 74 73 77 70 67 63 62 61 63 70
34 32 32 32 36 37 37 56 67 62 49 47 49 51 52 52 56 62 69 87 86 78 61 54 57 62 72 93 98 86 76 79 80 77 71 77 68 68 65 66 68 70 71
32 32 34 36 35 34 40 59 69 61 50 48 48 48 50 55 58 62 68 87 78 62 57 56 65 74 71 64 65 68 81 85 85 74 72 74 70 76 76 74 68 59 59
34 36 36 35 35 38 40 56 68 62 56 52 51 51 52 56 62 63 78 71 70 65 64 80 80 66 60 60 61 63 71 96 92 88 69 79 89 87 85 64 61 72 72

GFSMA_925_rhum_012.txt.gz
RH
67 66 70 64 53 47 40 28 24 24 24 21 19 18 19 22 24 28 36 38 50 71 73 70 68 66 64 64 65 67 70 70 73 76 77 78 79 81 85 84 84 89 90
70 65 61 51 46 38 29 24 22 22 22 21 20 19 19 21 24 29 36 37 33 29 30 50 54 53 54 54 54 56 58 62 62 62 66 66 66 67 70 71 78 82 81
63 67 60 45 34 30 26 24 21 22 23 23 22 21 19 22 24 28 31 31 32 31 30 29 26 44 45 51 57 58 59 63 63 63 62 65 66 65 66 67 74 73 70
67 68 54 38 34 28 25 24 25 25 25 23 20 17 18 22 25 26 27 28 30 30 33 32 29 35 38 42 51 53 59 65 66 67 65 67 66 66 65 66 72 73 71
67 68 43 37 29 26 27 26 29 27 23 20 19 18 26 29 26 24 26 27 27 26 28 27 27 27 34 38 44 48 56 62 63 64 67 67 68 68 67 68 69 71 70
67 60 40 32 29 30 29 30 30 28 25 19 21 23 26 32 26 26 32 20 25 24 24 25 24 26 30 38 41 44 51 55 62 70 71 71 70 71 70 68 67 68 67
58 42 34 30 32 33 33 31 30 27 25 16 20 23 25 27 37 35 25 22 22 22 24 24 27 28 28 30 35 40 46 53 64 69 71 72 70 70 70 69 68 66 64
40 40 32 32 34 35 36 32 27 26 27 22 24 31 39 30 22 23 21 22 22 22 23 25 28 28 29 29 30 39 43 48 60 69 69 71 73 72 70 68 65 64 63
39 36 32 34 36 37 35 32 28 25 28 28 22 27 40 43 32 23 25 23 24 23 24 27 28 29 29 29 29 32 40 49 61 66 67 73 71 71 69 67 65 63 62
35 34 34 35 37 37 34 30 27 24 27 28 28 26 25 25 40 44 26 23 27 27 28 29 29 29 29 29 29 31 40 49 58 62 67 69 69 67 66 64 63 62 60
34 35 35 36 36 35 31 30 29 25 24 28 29 29 29 28 28 38 52 39 30 31 32 32 30 28 27 28 28 30 42 51 55 60 65 65 64 62 61 61 65 63 70
34 34 34 34 34 34 31 29 28 28 28 29 29 30 31 34 36 38 50 44 43 38 37 34 28 27 27 28 31 40 45 49 53 58 59 60 60 61 60 59 58 58 64
34 34 34 34 34 34 31 30 31 31 31 30 31 31 32 34 35 36 39 48 53 44 42 36 30 28 26 31 34 38 46 48 51 53 56 58 59 60 59 58 59 66 66
33 34 34 32 33 30 29 31 31 32 31 32 34 36 39 39 40 40 41 47 56 53 45 39 37 32 35 36 39 44 44 50 50 54 56 58 58 58 59 57 58 64 60
34 34 31 32 31 30 30 31 32 30 30 32 35 38 38 40 39 39 40 42 48 60 54 43 42 40 40 41 44 49 49 48 51 58 59 56 56 58 56 56 56 57 57
32 30 29 29 29 29 29 30 30 30 30 33 36 37 39 42 42 42 42 40 41 47 59 46 48 46 48 50 52 52 50 53 62 63 57 57 56 55 55 57 60 67 72
30 29 29 29 29 30 30 29 29 30 33 35 37 39 41 44 46 41 38 38 39 42 57 49 50 54 54 55 54 54 60 67 68 57 53 54 52 56 59 64 66 63 68
29 29 29 29 29 29 27 27 28 30 33 36 38 40 42 43 44 42 39 40 44 48 53 61 62 61 61 58 62 71 74 63 56 53 50 53 57 60 61 64 65 70 72
28 28 28 29 29 29 28 29 29 31 34 37 40 43 45 47 47 47 46 54 58 63 63 68 68 66 68 75 88 69 62 55 51 54 56 58 63 65 65 64 63 63 65
28 29 30 29 30 30 30 30 35 41 44 46 46 45 45 44 45 47 53 59 67 68 70 71 77 84 84 93 67 65 60 58 64 69 72 74 66 66 66 62 68 70 70
31 31 31 30 30 31 30 30 28 41 47 48 46 44 45 44 53 56 60 60 64 65 68 82 83 88 86 70 72 60 64 66 75 82 76 69 70 69 71 72 74 71 71
32 32 32 32 32 31 30 32 59 49 46 52 49 48 48 52 54 56 59 61 61 64 75 88 98 71 74 62 64 67 75 86 90 72 72 76 73 75 78 75 71 69 70
33 33 32 31 31 33 36 36 62 55 48 52 50 48 51 53 54 54 57 63 65 77 74 74 72 64 63 66 72 89 96 99 86 79 80 83 78 77 73 72 73 73 73
33 32 32 31 33 37 36 40 63 53 56 54 50 49 49 50 51 58 60 65 79 80 76 68 64 64 68 78 95 87 77 78 81 81 78 88 75 76 76 77 76 78 79
31 31 31 35 35 35 41 52 64 66 62 58 54 52 53 55 56 59 65 68 79 75 73 67 68 76 77 71 67 69 78 81 84 79 79 82 81 84 84 82 70 66 69
30 31 34 33 34 35 40 51 62 67 70 65 64 63 62 62 63 63 64 72 74 74 68 76 84 67 69 66 68 70 74 93 91 88 72 92 90 93 84 67 64 73 74

GFSMA_925_rhum_015.txt.gz
RH
61 68 79 76 59 50 44 38 27 24 22 20 18 19 19 22 25 36 39 35 56 70 68 65 63 62 61 59 60 61 63 67 67 68 70 70 70 72 76 76 79 86 86
67 73 72 59 53 47 38 28 22 21 21 20 20 20 20 22 24 36 37 36 32 32 52 52 51 52 52 56 60 63 65 67 67 67 68 69 69 71 70 72 71 76 77
71 69 64 53 48 38 31 23 21 22 22 22 21 20 20 22 25 32 32 33 31 31 36 44 43 45 46 51 56 58 62 68 71 71 69 70 71 72 72 70 72 72 76
71 67 61 52 40 33 25 26 26 25 22 17 16 16 18 22 26 28 28 29 30 29 30 36 35 41 43 46 52 54 61 66 67 69 73 74 74 74 74 72 72 74 74
67 65 64 50 39 28 26 29 30 26 18 15 18 20 28 27 26 27 26 28 27 25 26 24 24 22 30 46 49 52 55 60 64 75 76 75 76 75 76 75 73 72 71
66 68 57 43 32 28 31 32 30 26 17 17 22 24 26 31 26 26 27 24 25 24 23 24 23 24 27 40 42 44 52 58 65 70 75 76 76 75 74 73 73 72 70
67 63 49 39 29 31 33 33 30 26 18 15 18 26 26 38 34 32 26 22 23 22 22 23 24 27 27 28 26 41 48 52 59 70 73 75 76 75 74 72 71 70 67
67 58 49 35 31 34 36 33 29 27 25 17 22 36 39 31 24 25 24 22 23 23 24 27 29 29 29 29 27 36 41 47 54 65 71 73 73 72 71 69 68 67 65
65 53 43 34 34 36 36 32 28 27 26 25 20 24 34 40 35 25 27 24 25 27 28 29 28 30 30 30 28 29 30 44 52 63 66 68 69 69 66 65 64 64 64
44 41 35 33 36 37 36 34 29 27 24 25 27 24 23 24 37 34 27 26 29 28 26 26 31 30 27 26 27 29 33 42 55 59 60 65 66 65 63 62 61 61 67
37 36 34 35 37 36 35 34 30 26 25 24 25 26 27 29 31 39 48 39 30 28 31 32 28 30 28 28 29 32 44 49 49 55 56 60 61 60 59 58 60 65 68
37 34 34 36 37 34 34 33 31 29 25 24 26 27 28 32 37 39 52 50 45 39 38 32 29 34 31 33 37 43 50 51 53 54 54 59 60 59 59 62 66 63 65
38 35 36 36 35 35 32 32 31 30 27 27 28 29 31 33 36 38 43 51 59 44 41 38 35 32 35 38 37 45 51 53 52 53 56 60 60 63 61 59 57 58 58
41 36 36 36 34 34 32 32 32 32 28 28 30 32 35 38 40 41 42 47 65 57 45 42 40 40 39 34 38 50 51 54 56 56 58 61 63 62 59 59 60 58 59
41 36 35 35 36 35 32 32 32 31 28 30 32 35 38 40 41 41 41 42 50 68 56 47 46 42 45 49 53 56 56 53 58 60 65 66 63 61 60 59 59 59 66
40 36 34 40 41 31 31 32 31 30 29 31 34 37 37 40 41 43 43 41 40 48 65 44 49 49 57 59 58 59 53 63 68 74 66 59 61 61 60 60 63 67 68
38 38 38 35 32 30 30 31 30 30 31 32 36 38 40 42 43 43 41 40 39 44 62 58 59 64 64 62 60 58 68 74 68 62 61 60 59 60 62 64 64 64 67
41 46 32 31 30 30 29 28 29 31 32 35 36 38 40 43 44 46 46 45 47 52 60 68 72 72 69 66 71 77 80 74 66 60 57 59 62 65 66 70 69 68 66
36 36 31 30 30 28 27 28 28 30 32 37 40 43 45 46 46 46 48 49 52 58 65 70 77 72 75 80 86 88 75 70 63 61 60 65 69 75 73 71 70 69 70
38 30 29 29 29 29 29 30 30 36 40 45 47 46 45 46 46 48 52 57 61 64 69 70 76 84 86 89 77 75 72 65 66 66 71 78 78 72 71 71 74 76 78
30 30 30 30 30 30 31 31 27 30 36 37 38 43 47 48 54 58 59 60 62 65 67 74 89 90 89 70 74 68 71 70 74 80 80 75 72 75 75 76 76 79 82
32 33 30 30 31 30 30 31 35 38 31 34 44 48 49 49 50 59 59 58 61 64 68 84 89 85 80 71 69 71 77 84 88 76 77 83 79 80 80 80 80 77 76
33 32 32 31 32 34 36 39 50 41 35 46 52 51 50 50 54 51 53 61 62 70 77 78 84 81 77 72 71 88 98 97 88 83 82 84 80 81 78 77 76 79 81
36 33 32 31 34 47 41 45 61 45 45 51 55 56 55 56 57 62 60 64 69 70 74 77 76 73 71 85 94 83 79 82 83 79 78 85 78 78 78 80 80 81 81
40 32 33 35 34 39 43 55 56 57 57 58 62 60 64 64 64 65 64 65 70 75 69 73 72 79 81 74 74 76 81 86 86 78 79 83 80 88 84 84 69 64 74
32 33 33 31 32 33 40 47 56 60 62 67 69 68 67 70 69 68 69 72 72 69 66 71 79 70 63 67 77 77 79 93 94 89 68 85 91 92 87 67 66 71 74

GFSMA_925_rhum_018.txt.gz
RH
77 82 66 78 79 69 52 42 32 26 23 20 19 19 20 23 33 40 43 54 72 72 68 65 64 60 61 63 65 68 70 71 72 72 72 74 74 73 74 75 77 78 82
71 78 71 85 72 56 42 36 28 22 21 20 21 20 21 24 32 39 37 35 35 53 56 52 53 53 55 60 61 64 69 74 75 74 73 74 75 77 76 75 74 76 77
66 66 78 83 50 43 42 31 22 22 23 21 21 20 21 23 30 38 35 32 30 32 44 48 49 50 51 56 59 61 68 71 70 74 78 78 78 78 78 77 76 76 80
64 71 78 58 49 45 39 25 24 26 22 16 16 18 20 23 29 32 31 30 30 29 31 30 26 36 48 52 57 59 62 65 69 80 78 80 81 80 79 79 78 76 75
68 71 63 55 50 46 32 27 29 26 17 15 18 20 31 26 29 29 29 30 27 25 23 23 23 22 27 47 49 50 54 61 68 73 78 78 77 76 76 75 74 74 74
70 69 62 57 51 42 27 31 31 24 16 18 23 26 31 29 28 28 28 27 26 24 23 24 24 25 26 31 40 44 53 59 62 69 75 76 75 75 74 73 72 72 71
67 67 59 56 49 38 30 33 30 23 16 18 24 28 34 31 29 31 28 25 24 24 25 26 28 29 30 29 29 42 46 50 56 62 70 74 73 73 72 70 69 68 68
68 65 61 56 45 32 33 34 31 26 19 17 24 35 38 31 30 30 26 24 24 25 27 28 28 31 31 31 30 28 35 45 50 56 66 70 69 70 69 68 66 65 64
66 64 62 55 42 33 34 34 33 30 24 21 18 25 45 41 35 28 27 26 28 28 28 26 29 29 27 27 27 29 31 42 46 58 63 66 65 66 65 65 63 62 62
65 63 61 54 41 34 35 34 32 31 26 25 23 21 21 23 34 28 28 31 30 28 26 26 27 28 30 28 28 32 43 50 52 55 60 64 63 64 64 62 62 60 66
68 61 52 46 36 36 36 35 33 31 27 25 24 25 26 29 30 39 41 37 31 27 26 29 29 31 32 30 34 43 57 57 58 60 62 61 62 62 62 62 62 65 68
57 51 49 41 37 37 36 34 32 30 29 25 23 22 24 30 38 40 51 51 47 36 34 30 30 34 32 37 37 37 56 58 61 60 61 60 61 62 61 60 64 61 64
45 44 45 39 39 36 35 34 33 30 29 28 26 26 27 29 32 37 42 50 56 46 38 36 35 33 37 39 33 36 57 60 60 62 61 64 64 64 64 62 62 60 56
49 44 43 38 39 34 35 34 32 32 29 28 28 28 31 35 38 40 42 47 62 59 48 40 37 39 42 38 49 60 58 62 62 60 65 66 67 67 67 63 61 59 58
52 47 40 40 38 36 34 34 34 34 29 30 30 32 34 38 39 40 42 43 49 64 66 45 42 42 47 53 60 62 60 53 66 70 73 72 68 66 65 64 64 67 65
53 47 42 41 39 35 33 38 45 43 30 31 32 35 37 37 39 42 43 43 43 49 68 48 46 50 54 61 56 60 60 75 71 72 72 69 68 67 65 66 67 64 71
53 47 42 43 39 38 44 38 38 31 31 32 34 37 38 39 41 42 42 42 42 44 67 58 58 59 66 64 61 63 72 67 70 74 71 69 68 68 68 68 68 68 69
52 47 43 42 47 45 41 36 31 32 32 33 35 37 38 40 43 44 46 46 47 47 58 69 70 68 71 70 69 79 70 70 75 73 71 69 68 70 72 75 75 70 70
49 46 43 44 50 58 33 30 30 31 32 34 36 39 42 45 47 47 47 48 49 54 60 69 78 74 75 72 80 83 80 74 69 69 67 69 72 78 79 75 74 74 74
49 46 51 51 40 42 29 29 30 31 35 39 43 45 46 46 47 47 52 56 59 63 65 69 74 76 79 84 88 77 75 70 71 72 75 80 80 78 74 76 77 78 80
53 52 57 57 44 32 31 32 34 31 31 35 34 37 43 48 54 60 60 61 63 62 63 66 77 89 89 81 81 77 76 75 78 81 77 78 74 81 76 82 79 78 84
50 51 52 60 51 50 38 31 31 33 28 25 34 43 47 49 51 57 61 58 60 63 67 78 84 95 88 82 80 80 81 90 89 74 81 83 80 82 78 79 82 84 80
66 80 76 46 37 47 42 43 37 34 30 37 47 52 52 52 54 54 55 62 63 66 71 73 82 85 86 80 78 86 98 97 89 86 84 84 80 82 77 78 76 80 82
61 56 53 46 41 55 60 58 40 41 43 47 55 60 60 61 61 66 65 66 66 69 72 77 80 77 75 82 95 88 81 85 87 83 80 84 76 79 78 76 79 83 84
83 81 80 60 49 51 53 58 49 53 52 53 58 67 72 73 71 72 68 70 81 77 70 71 75 79 82 80 73 80 85 91 88 82 82 85 81 80 78 80 70 62 78
91 55 38 34 32 35 51 52 57 57 58 64 70 70 69 76 74 72 74 80 74 71 66 75 78 71 61 60 79 81 84 95 96 88 70 82 88 92 83 69 68 66 73

GFSMA_925_rhum_024.txt.gz
RH
88 100 100 98 94 81 74 56 46 33 29 22 19 19 21 33 43 51 70 79 78 75 71 66 64 66 68 68 71 77 79 78 78 82 84 83 84 83 83 83 82 81 82
74 84 93 95 87 82 70 61 39 34 25 21 20 20 23 33 41 48 60 65 61 62 61 62 60 62 66 66 68 73 73 75 81 85 82 85 85 85 84 84 84 84 81
75 79 84 91 78 83 69 48 38 32 23 22 21 21 24 32 41 41 40 41 45 48 60 60 56 63 59 62 65 67 67 71 80 80 84 84 82 81 81 80 80 80 79
76 77 84 88 75 84 69 44 37 29 24 22 20 22 23 31 40 39 36 34 33 36 40 38 43 49 54 55 56 56 59 68 74 78 82 80 81 80 78 78 77 77 76
67 71 74 84 79 83 60 44 38 27 24 18 18 22 24 27 41 39 34 33 32 30 25 22 22 24 32 47 51 54 58 65 65 68 75 77 78 77 76 76 76 75 74
66 70 74 84 84 74 47 40 34 29 22 19 24 31 30 31 42 40 34 33 28 27 24 24 25 25 25 25 32 51 50 53 57 63 65 70 74 74 73 72 72 72 71
75 78 76 84 84 70 53 41 32 28 21 23 29 37 34 33 34 37 34 33 29 26 25 25 26 26 25 24 24 26 47 48 53 59 63 68 71 71 71 70 70 70 70
80 81 78 73 80 61 44 41 36 26 20 26 27 34 49 39 36 32 33 32 29 26 27 27 27 26 24 23 23 25 43 54 57 60 63 68 69 70 69 69 68 68 69
80 80 81 71 76 64 49 47 37 31 22 26 24 29 50 45 41 35 32 30 29 28 28 28 27 25 24 26 26 27 42 66 66 67 68 70 72 71 70 68 68 67 66
84 79 82 76 71 63 53 56 44 33 27 20 22 27 23 28 42 38 34 31 30 30 30 30 29 27 27 28 29 31 48 65 66 66 68 72 70 70 70 69 68 66 66
87 82 80 75 70 63 55 54 46 33 31 26 20 24 24 25 24 33 38 40 35 33 34 34 31 30 31 31 30 32 46 62 63 64 66 69 72 71 71 70 68 68 66
90 87 83 74 70 64 57 52 48 37 33 31 24 22 22 26 32 34 43 44 40 33 35 34 33 32 34 32 34 35 35 64 66 68 73 74 73 73 72 72 70 69 67
94 88 84 75 70 67 56 49 46 37 41 31 28 26 24 24 25 27 31 46 46 40 34 32 35 36 36 36 36 36 35 51 68 70 74 77 77 77 76 74 72 70 68
78 84 84 76 72 69 59 52 43 40 38 34 28 27 27 26 26 26 29 39 55 55 46 33 36 37 38 40 37 40 47 54 68 74 78 80 79 77 76 74 72 70 68
86 83 83 76 71 68 57 49 45 43 35 32 31 30 30 31 30 31 32 32 35 49 56 41 35 35 37 38 45 58 62 59 75 80 77 74 76 79 77 75 73 71 70
90 86 84 79 73 66 54 50 46 40 36 38 49 51 50 35 35 37 38 37 39 41 58 40 37 38 40 45 55 62 60 58 57 74 78 77 81 80 78 76 73 71 70
92 88 84 79 72 63 55 48 43 40 44 50 44 42 47 45 46 40 39 40 43 47 61 50 47 43 49 57 58 61 62 60 57 56 79 81 83 83 80 77 76 73 72
88 85 82 76 69 60 52 47 45 43 49 59 60 60 61 58 50 41 40 42 44 47 51 61 54 54 61 62 64 70 69 63 63 53 84 84 81 80 82 80 75 75 79
83 78 75 70 64 57 50 46 47 52 63 82 84 81 66 43 40 40 44 46 49 50 52 61 66 66 70 66 71 75 75 71 68 66 75 80 82 85 86 81 78 78 78
78 72 65 61 63 56 46 50 70 81 67 62 60 53 48 46 44 47 49 49 49 54 59 65 70 71 71 71 79 86 85 78 78 75 66 71 85 82 80 80 85 86 85
72 69 70 73 74 73 80 78 80 81 83 84 88 75 57 45 45 44 50 58 62 63 66 67 75 77 79 82 89 82 88 86 87 75 70 77 77 76 70 71 73 70 75
80 83 88 89 91 91 93 90 82 74 68 56 52 80 84 46 48 54 72 73 72 73 68 74 77 84 91 86 82 86 91 94 88 76 80 86 84 82 72 66 58 83 85
85 88 90 85 90 95 98 89 93 95 96 98 75 44 43 50 55 56 55 63 68 66 71 77 84 85 85 80 79 86 93 100 96 88 87 88 83 80 66 60 63 75 84
98 95 92 94 100 100 98 96 98 81 46 42 45 53 59 68 67 77 77 77 74 74 77 84 86 83 81 82 90 96 95 91 90 87 82 89 75 77 68 70 73 82 68
99 100 99 99 97 99 99 71 46 46 46 53 64 68 74 71 66 79 74 75 84 87 78 76 80 84 87 84 78 77 83 95 90 84 84 87 80 78 80 78 64 62 78
100 100 99 100 98 96 98 96 63 53 56 62 70 72 68 77 78 76 77 93 88 79 73 81 82 79 70 58 65 77 85 94 100 91 70 81 79 89 84 66 66 67 71

GFSMA_925_rhum_027.txt.gz
RH
79 94 92 96 95 86 81 64 49 38 34 27 20 19 22 34 50 59 80 82 79 77 71 68 69 71 70 72 78 79 78 80 85 84 85 88 88 87 86 86 86 85 82
78 98 96 98 98 91 80 64 54 38 35 24 20 20 26 36 49 59 72 73 66 66 66 64 64 69 69 68 72 73 74 77 84 83 86 85 84 83 82 82 83 82 82
79 85 98 100 97 89 81 68 49 38 31 23 21 22 27 37 49 53 56 56 56 54 66 62 66 62 63 65 67 64 67 72 79 82 83 82 82 82 80 80 80 79 79
80 79 83 92 90 86 80 62 44 37 28 24 22 22 28 37 44 43 42 43 44 50 51 50 53 57 58 57 56 57 60 70 72 76 80 80 80 79 78 78 77 76 76
75 81 80 85 89 85 83 60 41 35 27 23 21 23 25 36 43 41 38 36 35 36 28 23 23 27 30 48 54 56 59 62 62 67 70 75 78 77 76 75 74 74 74
72 77 83 82 90 88 86 57 40 34 27 21 21 27 26 33 44 43 37 35 33 29 25 22 23 24 24 23 23 39 52 52 56 61 63 66 74 75 73 73 72 72 72
81 74 76 81 83 89 84 60 38 33 25 22 31 39 35 39 47 45 37 35 31 28 25 24 24 25 24 24 21 20 54 51 56 59 63 66 70 72 72 71 71 70 70
87 81 73 75 78 90 80 51 41 33 25 25 34 43 39 38 38 38 39 36 32 28 26 26 26 26 24 22 21 22 32 59 61 65 69 72 72 72 72 71 70 69 70
91 87 80 79 79 86 81 64 46 40 27 28 24 32 42 36 39 38 35 36 32 29 28 27 27 26 25 24 24 26 47 48 67 68 70 72 75 73 72 71 70 69 68
94 93 86 86 86 81 78 72 57 43 36 29 28 28 27 32 37 37 41 39 34 31 30 29 29 28 26 26 27 28 32 41 65 66 69 71 71 72 71 70 70 69 69
100 98 91 87 91 78 73 69 56 44 38 31 26 28 29 28 26 31 36 38 43 38 33 33 33 31 29 29 29 29 32 52 68 67 69 72 75 74 72 72 71 71 70
100 100 98 90 89 87 73 74 58 48 46 32 28 24 23 30 34 34 32 36 35 42 37 37 37 34 31 33 32 33 32 32 62 68 72 76 77 76 76 76 74 72 71
100 99 98 93 89 89 83 76 63 53 46 38 33 25 22 23 26 24 31 44 41 45 43 38 38 35 35 36 36 37 37 33 59 71 74 79 80 80 79 77 76 73 72
92 99 97 94 90 86 81 74 68 58 50 47 38 31 27 27 29 27 28 36 47 47 42 37 35 38 39 38 38 36 34 40 48 73 76 78 79 78 77 78 75 74 72
95 93 96 96 91 87 83 77 72 62 55 46 41 35 43 31 29 34 45 30 32 38 37 42 42 36 38 39 38 48 58 56 72 75 75 76 78 78 79 78 76 75 74
100 98 94 96 94 91 85 80 72 62 52 44 39 32 35 44 60 58 38 34 31 30 40 40 38 36 37 41 42 59 64 60 67 71 76 79 80 81 80 79 78 76 74
100 100 96 94 94 91 86 83 84 63 46 39 36 42 66 67 49 50 53 60 57 50 49 49 43 42 42 42 50 56 58 65 71 62 75 80 85 84 82 81 79 78 76
99 99 96 93 91 87 82 76 68 53 44 43 63 68 67 74 76 68 61 62 54 58 56 54 57 50 49 53 60 63 68 67 74 68 74 86 85 84 84 84 82 81 79
98 94 93 90 86 81 74 65 59 57 53 61 72 88 88 82 76 68 61 61 66 86 60 67 56 65 70 63 71 75 78 81 80 71 77 79 83 87 89 85 84 82 82
90 87 84 78 73 68 64 61 55 63 81 88 83 71 69 74 85 86 92 97 96 63 61 85 82 77 78 74 81 83 79 74 71 72 77 79 83 82 80 80 83 85 87
80 75 73 70 68 65 60 58 66 81 85 87 89 96 96 89 92 99 93 89 92 93 89 94 81 77 77 75 75 75 79 74 75 82 80 75 79 78 74 75 73 66 62
81 80 78 73 75 76 79 87 91 94 96 96 94 93 100 98 65 64 95 98 99 94 81 87 88 75 76 80 81 82 80 83 80 72 77 73 76 73 72 73 64 69 85
88 93 98 99 100 100 96 94 92 91 94 98 94 80 55 61 56 53 55 72 74 72 75 78 82 78 83 82 86 94 92 94 86 79 78 78 73 72 72 69 75 80 85
100 100 100 100 100 100 100 98 97 97 93 84 60 55 63 77 73 78 85 82 76 76 78 83 90 87 87 90 92 99 95 84 77 75 76 79 68 66 68 70 75 81 79
100 100 100 100 99 99 98 98 95 71 51 69 78 76 79 76 58 79 76 75 86 90 79 75 83 88 90 86 82 77 84 84 82 71 73 77 73 70 70 70 70 70 79
100 99 99 99 99 99 97 67 54 53 65 75 76 74 65 77 78 80 86 97 89 81 76 82 83 77 66 56 64 84 89 96 93 84 75 82 76 77 77 63 63 67 74

GFSMA_925_rhum_030.txt.gz
RH
78 78 84 92 90 85 73 60 45 36 31 29 27 32 38 46 49 52 66 83 79 76 71 72 74 73 74 79 80 77 79 85 83 86 88 86 84 83 84 84 84 84 84
77 76 91 97 94 89 77 58 44 37 34 30 26 33 40 48 49 52 57 73 71 69 68 66 69 71 70 73 73 74 75 82 80 85 84 83 84 84 83 82 82 81 82
75 76 85 99 92 92 78 59 45 38 34 30 27 33 40 46 51 52 53 54 60 62 66 66 73 66 67 68 66 62 68 75 78 82 81 82 82 81 81 80 80 79 78
74 75 80 97 98 92 76 59 48 40 36 31 28 30 39 47 47 47 50 48 48 55 57 63 60 62 61 58 58 57 62 71 71 72 76 78 80 79 78 77 77 77 76
80 74 75 84 90 88 71 59 48 42 38 33 30 30 35 42 45 45 44 46 48 47 44 41 40 39 38 50 57 57 59 61 61 66 67 70 74 77 76 75 75 75 74
87 85 76 78 83 86 71 59 49 42 38 34 26 31 33 40 44 42 41 41 44 46 42 42 35 37 23 23 22 27 54 52 55 60 64 67 70 74 75 74 73 73 72
90 92 87 84 84 82 75 62 52 42 39 34 36 36 36 38 44 44 40 38 39 38 35 34 33 34 31 23 22 20 39 51 56 61 64 66 69 72 73 72 72 73 72
91 94 92 90 84 82 77 65 51 45 40 39 34 33 33 33 36 42 41 37 35 35 35 35 34 35 33 33 32 20 22 54 62 66 71 74 74 75 74 73 72 71 70
93 92 96 92 88 80 76 67 56 49 44 42 37 31 37 34 31 37 41 40 35 36 35 36 36 35 34 38 30 38 28 32 55 65 69 71 74 74 74 72 71 70 71
99 95 98 96 92 83 75 70 65 61 48 45 42 38 37 37 33 38 37 38 37 36 35 38 35 37 39 39 36 38 38 27 50 66 72 72 73 75 74 73 72 70 70
99 100 100 99 98 85 77 78 68 58 50 48 45 40 38 35 35 32 36 38 38 37 35 36 36 37 40 40 42 46 30 30 64 67 67 71 75 76 75 73 72 72 73
100 100 100 99 100 95 83 79 77 64 52 46 46 40 36 35 33 31 30 34 36 37 38 38 39 39 40 41 42 40 33 31 51 66 69 73 77 77 76 77 75 75 74
97 98 99 100 100 99 92 82 78 72 62 50 44 43 35 30 26 29 30 40 33 38 40 42 43 43 43 44 43 40 51 37 41 65 68 76 79 81 81 80 78 76 75
98 99 100 100 100 100 98 92 90 83 73 64 60 45 37 35 27 27 25 40 51 38 40 38 43 46 46 47 46 44 46 55 54 62 73 76 78 78 79 79 78 77 75
93 93 98 100 100 98 98 96 95 90 85 80 70 53 45 36 31 31 31 32 44 60 49 38 40 46 46 47 50 48 44 54 70 72 75 76 77 78 79 79 79 77 76
98 99 99 99 99 98 96 96 96 93 89 82 71 62 59 43 40 39 45 42 34 36 42 40 44 50 43 43 48 50 52 63 69 71 77 80 79 80 81 80 78 77 76
94 98 97 96 96 98 98 96 95 91 82 76 70 74 77 65 59 62 56 54 61 64 73 64 55 55 52 48 41 55 59 56 56 61 69 76 78 82 83 81 80 79 79
99 98 94 95 94 95 95 95 92 87 86 93 99 94 90 82 75 75 82 85 90 93 94 69 87 91 94 58 88 91 80 70 66 64 71 79 81 81 83 85 85 83 81
94 94 93 92 92 90 89 89 84 84 88 87 79 79 89 91 92 93 91 90 80 84 96 98 98 89 94 88 90 94 85 68 65 67 65 60 69 76 82 85 85 83 82
89 87 86 87 84 82 77 74 76 79 76 84 88 91 92 91 87 84 81 91 99 99 98 97 80 81 90 95 87 71 64 61 60 60 61 68 74 78 82 83 83 85 86
78 77 78 79 78 77 76 76 77 80 85 90 85 81 80 85 96 99 100 99 95 95 87 90 86 84 72 62 57 59 62 60 59 62 61 62 59 60 62 65 66 70 74
86 84 84 84 81 81 93 84 79 84 82 87 98 100 100 99 99 98 98 98 99 99 95 85 77 69 64 64 58 62 65 69 68 66 62 62 62 60 60 59 60 67 75
94 98 99 98 99 99 100 91 90 96 100 99 99 98 96 91 71 63 56 72 89 86 83 81 76 64 61 64 80 85 77 79 76 68 66 64 62 62 59 58 61 67 74
100 100 100 100 100 100 100 100 98 99 98 97 94 69 72 73 74 86 84 91 89 82 77 74 73 71 71 72 75 80 80 74 64 62 61 65 60 59 58 59 62 66 70
100 100 100 99 97 99 99 99 98 97 96 66 67 73 80 74 74 82 74 85 76 75 77 79 80 83 87 85 82 75 72 71 75 65 63 65 63 61 62 63 65 64 68
100 99 99 98 98 97 98 93 68 71 77 76 77 76 70 74 79 81 78 83 75 71 66 74 66 65 64 59 67 76 76 82 84 84 63 72 71 73 77 63 60 62 68

GFSMA_925_rhum_033.txt.gz
RH
75 79 84 82 77 78 65 60 48 40 36 32 30 31 34 39 42 47 75 82 80 77 74 76 79 76 80 82 78 79 84 84 86 88 85 84 85 86 86 85 84 85 85
63 66 71 83 83 83 73 64 52 40 35 33 30 30 34 40 42 45 65 82 78 68 70 72 72 73 75 77 75 74 77 81 85 84 82 84 84 83 83 82 82 82 82
62 63 65 74 81 88 77 68 53 41 37 35 31 31 36 40 44 45 52 62 69 64 64 70 75 69 70 71 67 63 70 77 77 81 80 81 82 82 81 80 79 80 79
66 63 63 79 80 93 82 72 56 44 40 37 33 31 36 40 43 43 46 50 53 60 64 73 66 66 64 59 58 58 64 69 70 70 72 76 79 79 78 78 78 78 78
69 67 65 68 79 89 85 73 58 48 43 38 35 31 33 39 41 40 44 45 44 52 53 60 61 58 48 54 57 58 61 63 60 65 67 68 70 76 77 76 76 75 75
75 72 70 67 86 89 85 71 60 50 45 41 34 31 32 36 39 39 39 41 42 47 44 50 38 32 26 26 24 27 47 53 56 59 64 66 69 72 74 76 75 74 74
76 79 77 70 71 82 84 70 61 51 46 40 32 34 35 34 40 40 37 38 38 43 44 43 42 37 29 23 22 21 23 52 55 60 66 68 72 74 76 75 75 75 74
80 80 84 82 75 77 79 73 62 53 47 40 40 41 44 36 35 39 39 37 35 38 36 35 36 35 33 35 40 27 21 45 62 66 71 73 74 76 75 75 74 73 73
89 81 83 89 84 79 81 76 66 56 51 44 43 42 49 47 36 36 40 40 36 35 35 36 35 34 36 36 38 31 25 22 29 63 66 70 74 76 75 74 74 73 72
96 94 84 87 88 86 87 80 71 60 55 50 46 41 37 38 46 49 39 41 39 35 36 36 36 36 36 38 41 46 49 33 27 63 72 71 72 76 75 74 74 72 72
89 94 92 88 94 91 90 84 75 63 61 59 53 46 42 36 39 43 50 42 40 38 36 36 38 36 38 40 42 42 36 27 35 66 67 70 73 76 76 75 74 75 74
79 84 91 92 94 92 95 89 81 70 70 64 58 51 44 42 40 38 45 44 43 40 37 36 36 37 38 40 42 44 46 32 29 58 66 70 74 78 78 78 78 76 75
75 84 89 95 94 99 95 91 88 79 76 71 62 59 50 45 36 34 33 41 45 40 39 38 38 39 40 42 44 42 41 36 33 57 68 69 74 78 78 79 79 79 78
78 80 87 89 95 96 97 100 95 90 85 79 74 65 59 50 43 40 50 46 53 45 41 40 42 43 43 45 44 45 40 54 57 65 70 71 75 77 78 80 80 80 79
74 77 84 86 87 90 100 100 100 94 91 89 83 75 67 65 68 57 56 69 80 83 58 42 43 44 44 46 49 48 47 44 53 66 71 75 78 80 80 80 81 81 80
69 83 91 90 96 99 99 100 100 99 98 95 92 90 78 68 55 53 63 64 68 70 70 56 59 57 54 53 56 61 52 58 66 67 67 70 75 81 81 80 80 80 79
72 80 90 90 90 94 99 100 100 100 99 96 92 85 77 69 71 82 80 85 90 84 89 81 67 62 72 83 83 93 88 67 66 67 66 69 79 84 83 81 81 80 78
82 89 89 91 92 93 96 98 100 100 97 93 90 84 87 94 99 98 95 89 85 84 88 95 97 98 98 98 98 94 76 80 75 73 77 77 80 80 74 77 81 82 82
89 90 91 89 90 91 93 94 96 96 94 94 92 95 100 97 95 95 95 97 97 96 98 97 100 95 94 78 80 88 89 84 75 66 63 60 61 64 72 79 82 82 82
84 83 83 84 84 85 86 88 87 92 97 100 100 97 92 90 89 98 100 100 96 98 99 98 98 97 81 82 86 83 70 61 60 60 60 62 63 66 72 73 72 76 81
81 79 81 81 82 80 81 82 86 91 94 96 97 99 99 99 98 92 92 99 99 98 98 98 94 84 80 77 68 57 61 61 61 64 63 63 61 60 62 63 63 64 66
90 88 90 87 86 93 94 87 85 91 94 95 94 97 98 100 100 99 97 95 90 92 97 94 82 77 62 58 60 59 73 80 78 68 65 67 67 65 63 62 63 64 67
99 100 100 100 100 100 100 100 96 94 94 98 100 100 100 99 93 80 94 97 98 94 88 88 79 67 62 60 73 73 79 82 78 72 72 69 66 66 62 60 60 63 67
99 100 100 100 99 100 100 99 98 100 98 98 98 95 89 75 71 72 77 81 85 82 80 78 74 72 72 70 71 72 75 74 72 67 62 68 64 64 63 62 63 66 68
99 99 98 95 98 99 99 100 99 98 98 95 84 86 78 72 65 84 77 76 81 71 73 79 78 77 82 84 83 82 83 79 78 74 70 71 69 69 67 68 60 64 64
99 98 99 100 99 99 99 92 80 78 92 86 75 71 59 73 78 80 80 75 76 71 65 66 65 65 64 60 59 64 71 82 86 84 68 73 75 83 90 66 66 64 68

GFSMA_925_rhum_039.txt.gz
RH
72 69 69 70 69 58 70 73 71 53 44 40 37 32 33 36 41 58 60 74 82 86 88 89 88 89 89 83 86 87 89 91 87 88 90 90 88 88 87 86 86 85 85
68 69 69 73 72 71 71 72 71 61 48 41 36 31 32 36 41 55 61 71 78 83 80 83 84 86 85 81 85 86 85 89 84 87 86 85 87 86 85 85 85 84 83
71 68 68 70 78 79 74 72 70 64 51 41 35 33 31 34 41 51 63 63 69 79 72 77 80 83 84 80 78 81 82 84 83 82 83 84 83 82 82 82 82 82 82
64 67 70 69 68 78 80 78 69 67 60 44 36 35 31 33 39 44 57 62 60 69 71 72 78 78 80 78 71 74 79 76 74 74 75 78 80 80 80 81 80 80 79
62 63 67 69 71 72 78 78 79 71 65 46 38 36 32 32 38 44 46 59 59 55 61 60 78 76 77 73 64 64 74 72 68 66 68 70 72 77 78 78 79 78 78
67 64 64 65 66 69 72 75 75 77 74 60 42 39 36 32 36 43 45 48 54 53 48 53 75 69 69 65 62 64 69 69 62 64 65 68 71 72 75 78 78 78 78
77 72 68 68 68 67 70 74 77 79 79 57 46 40 37 33 34 38 43 45 48 51 53 52 54 64 61 54 62 62 59 57 59 61 64 68 72 76 79 79 79 78 78
72 73 74 74 75 70 71 79 83 83 81 62 48 41 49 40 33 35 40 42 44 45 51 56 51 50 52 46 40 30 44 52 57 61 66 71 75 76 77 79 80 79 78
62 62 64 69 83 82 77 79 81 89 76 67 57 48 72 66 50 36 35 41 41 43 44 47 51 47 44 36 34 27 25 55 59 65 70 71 72 76 77 78 79 78 78
73 72 67 67 71 87 94 89 83 83 85 73 56 47 51 48 59 56 40 38 44 40 42 43 44 46 42 37 35 32 33 34 61 64 64 68 74 72 76 80 79 79 78
72 69 72 75 77 80 88 100 95 95 91 82 71 54 53 57 45 58 68 60 43 44 40 40 42 42 38 36 36 36 36 37 56 61 65 67 70 72 76 80 81 82 81
64 66 64 72 80 76 81 84 95 100 99 93 79 71 56 56 65 60 77 69 62 50 45 42 43 42 36 36 36 36 40 45 62 65 65 67 71 74 76 79 80 78 81
55 74 73 75 75 71 76 82 89 97 100 100 91 82 72 74 67 59 57 66 70 56 57 66 58 39 37 36 36 37 40 45 54 65 71 79 78 78 78 78 80 81 80
64 72 71 59 65 69 77 75 83 87 97 100 100 95 86 89 74 75 66 67 84 79 71 77 62 52 50 41 45 55 74 61 55 70 81 82 79 83 81 84 83 82 82
68 71 75 78 80 81 74 78 88 92 98 100 99 100 96 91 85 82 80 72 72 90 91 86 83 74 60 76 82 72 62 71 87 92 94 84 85 89 98 85 83 85 85
74 77 74 75 71 78 77 78 88 88 88 97 100 100 100 100 97 90 88 80 76 82 96 89 91 90 87 86 83 88 94 98 97 98 98 99 100 92 77 78 82 83 83
82 82 81 82 88 87 86 87 84 84 84 88 95 100 100 100 100 99 96 92 93 94 96 99 99 100 99 96 100 100 99 98 99 96 99 100 90 80 81 82 82 82 79
88 87 86 90 92 92 95 97 98 100 100 100 100 100 100 100 99 98 97 96 95 99 100 99 100 99 100 100 99 99 98 99 100 97 72 83 83 85 78 73 73 75 78
85 86 86 86 86 86 89 89 91 96 98 100 100 100 100 98 97 96 96 99 100 100 100 99 100 99 100 99 100 100 99 98 78 62 80 86 70 67 71 72 74 74 78
81 81 82 82 82 83 85 87 90 93 97 99 100 100 100 100 100 100 100 100 99 100 99 100 98 99 100 100 99 91 79 72 65 65 65 62 72 70 71 73 76 78 76
85 85 85 85 86 87 87 88 92 96 98 99 99 99 99 99 99 99 100 100 100 99 99 99 99 99 98 94 86 78 79 70 67 68 63 56 56 55 54 58 59 62 74
98 92 94 95 99 99 98 87 90 95 100 100 100 100 99 100 99 99 100 100 100 100 99 99 98 96 84 80 71 68 73 72 73 64 67 68 58 58 55 59 59 80 77
100 100 99 99 99 99 99 98 92 95 96 96 98 98 98 99 100 99 99 99 99 99 98 85 86 87 76 72 73 73 73 76 77 74 79 74 59 61 58 58 57 69 80
99 100 100 98 99 100 99 96 93 94 96 96 95 94 93 88 88 88 78 75 75 77 74 75 77 79 80 80 82 84 85 86 84 74 69 80 71 65 58 56 55 62 77
100 100 99 99 97 100 96 87 87 90 84 70 67 74 68 65 77 82 79 79 81 77 75 85 80 76 74 78 82 85 83 81 80 73 72 84 80 78 69 56 56 56 64
99 100 96 82 82 83 83 69 64 67 66 64 61 60 76 82 84 87 90 84 82 78 75 72 65 61 64 57 56 61 58 61 67 80 81 77 84 92 88 75 69 69 70

GFSMA_925_rhum_042.txt.gz
RH
67 71 71 69 68 69 64 67 68 67 59 46 40 34 33 34 38 51 66 75 73 82 93 92 91 90 91 86 88 87 91 89 89 91 92 90 90 89 89 88 87 87 86
67 70 70 71 71 71 66 61 68 67 61 48 42 40 33 33 36 44 61 71 77 78 85 90 88 86 88 85 88 86 91 89 89 91 89 89 89 88 88 88 87 86 84
75 69 70 70 72 72 72 71 73 74 70 60 46 40 34 32 34 40 52 68 72 77 79 86 85 84 86 84 86 86 89 87 86 86 86 87 86 86 86 85 85 84 84
72 74 71 70 72 74 76 76 74 75 74 65 56 45 37 33 32 36 47 65 69 71 74 74 82 83 84 83 81 83 84 86 84 83 83 82 83 82 82 82 82 81 81
64 67 72 71 71 74 80 82 80 78 76 64 65 55 38 35 32 34 41 57 66 65 64 68 72 79 83 82 80 77 81 80 78 75 75 76 79 80 81 80 80 79 79
65 64 65 64 66 73 75 78 84 82 82 76 64 54 42 36 33 33 38 45 57 63 60 60 66 77 77 82 79 68 73 79 75 71 71 72 73 76 76 79 80 79 80
79 79 74 68 67 69 69 72 74 82 80 83 68 48 42 42 38 34 36 43 48 58 61 55 54 67 73 73 73 67 68 77 71 67 68 70 72 74 77 80 80 80 80
74 72 72 72 76 74 73 75 81 89 88 88 70 52 50 49 41 39 34 38 42 48 57 56 53 54 67 66 63 66 66 63 63 65 67 69 72 78 78 79 80 81 80
75 75 71 73 73 73 75 75 79 86 96 89 82 65 68 68 58 40 36 35 40 44 50 56 56 56 58 63 62 56 54 57 56 62 66 72 76 75 77 78 80 80 80
68 73 76 75 74 78 84 81 86 95 99 96 86 70 67 56 67 71 44 39 37 45 46 50 56 59 57 56 56 53 39 31 56 61 68 73 73 75 74 76 80 79 80
45 43 67 80 70 66 76 77 84 95 97 100 94 78 66 72 65 66 72 62 49 40 44 46 49 55 57 55 56 41 38 36 60 68 66 66 73 72 72 76 79 81 82
41 46 60 66 77 74 76 77 81 91 92 99 100 95 84 79 85 75 86 82 85 64 52 51 53 54 54 59 74 70 51 42 60 62 66 68 70 76 84 83 82 82 81
60 49 62 75 78 78 76 79 76 76 83 94 97 99 97 92 79 85 92 88 91 78 68 62 55 54 56 66 74 67 56 47 67 68 69 72 86 94 94 87 95 94 86
73 73 79 72 81 83 74 68 76 79 88 87 87 99 99 98 94 90 87 89 97 86 78 73 71 65 66 75 83 83 74 82 73 65 62 70 94 86 92 96 99 100 98
58 75 80 76 74 70 74 80 80 81 82 88 94 100 100 99 99 97 96 99 94 96 95 81 72 70 69 71 76 80 83 80 78 88 96 98 99 99 98 98 98 99 96
86 87 82 79 75 72 80 86 87 87 90 93 99 100 100 99 100 100 99 95 93 98 97 87 83 80 81 84 95 89 85 91 96 94 99 99 99 98 98 100 98 89 84
86 84 84 82 79 84 88 92 94 95 97 100 98 99 100 100 100 100 100 100 100 100 99 100 94 98 98 98 100 97 98 98 98 100 98 100 98 100 100 96 86 82 80
87 87 87 87 88 88 90 90 92 94 98 96 98 99 99 100 97 98 96 96 100 100 100 100 99 99 100 100 100 100 100 99 100 99 99 99 99 97 85 85 80 77 76
84 84 81 80 81 83 85 87 89 88 91 92 94 92 95 97 98 98 98 98 99 99 100 100 100 99 100 100 100 100 99 100 100 100 98 92 89 87 75 74 75 76 77
84 84 84 83 82 82 83 87 89 93 94 95 97 99 100 100 100 100 99 99 99 99 99 100 100 100 100 100 100 99 99 98 87 74 66 77 73 69 78 75 75 78 81
90 91 89 87 85 86 89 90 93 96 98 99 99 99 98 96 98 100 100 99 100 99 100 98 98 99 100 99 98 92 88 78 71 67 65 65 59 49 45 49 54 58 74
100 96 95 99 99 98 100 91 92 97 100 100 100 100 100 100 100 99 99 100 99 97 98 99 100 98 92 86 82 76 73 74 73 67 66 63 52 45 45 53 55 56 84
100 100 98 99 99 100 100 93 92 94 96 97 96 95 94 97 99 100 99 99 99 99 99 96 88 88 80 73 74 74 76 78 79 73 78 75 49 51 53 57 57 66 84
98 98 99 96 98 100 98 94 91 91 91 89 81 72 66 63 78 75 70 71 72 72 75 76 75 77 80 79 81 83 85 87 85 73 71 86 65 62 59 55 56 58 86
98 99 97 93 88 89 91 66 65 66 58 57 63 69 60 67 76 84 76 77 80 78 79 87 83 82 79 78 82 86 88 87 82 72 69 77 82 78 65 62 64 64 88
100 88 82 77 80 78 86 76 55 60 58 58 56 61 81 83 86 94 86 84 82 81 78 75 72 67 62 62 57 69 64 60 67 74 83 82 84 86 90 72 72 67 63